Home > Weather > Wake Island > Past weeks

Flag for US Minor Outlying Islands Past Weather in Wake Island, US Minor Outlying Islands — Yesterday and Last 2 Weeks

Now
79 °F

Warm.


Feels Like: 83 °F
Forecast: 82 / 85 °F
Wind: N/A

Location: Wake Island Airfld

Current Time: Jul 1, 2016 at 12:30:18 AM

Latest Report: Jun 30, 2016 at 11:58 PM


Visibility: N/A

Pressure: 29.93 "Hg

Humidity: 90%

Dew Point: 76 °F

Location of Wake IslandLocation

Past Weather in Wake Island — Graph

°F

Wake Island Temperature Yesterday

Maximum temperature yesterday: 81 °F (at 10:58 AM)
Minimum temperature yesterday: 74 °F (at 4:58 AM)
Average temperature yesterday: 78 °F

High & Low Weather Summary for the Past Weeks

 TemperatureHumidityPressure
High89 °F (Jun 24, 1:58 PM)95% (Jun 30, 4:58 AM)30.01 "Hg (Jun 30, 4:58 AM)
Low73 °F (Jun 29, 6:03 PM)61% (Jun 24, 1:58 PM)29.83 "Hg (Jun 30, 5:59 AM)
Average83 °F79%29.93 "Hg
* Reported Jun 15 10:58 PM — Jun 30 10:58 PM, Wake Island, Weather by CustomWeather, © 2016

Note: Actual official high and low records may vary slightly from our data, if they occured in-between our weather recording intervals... More about our weather records

Advertising

Wake Island Weather History for the Previous 24 Hours

Scroll right to see more
 ConditionsComfort  
Time TempWeatherWind HumidityBarometerVisibility
10:58 PM
Thu, Jun 30
79 °FWarm.N/A89%29.93 "HgN/A
10:03 PM79 °FWarm.N/A94%29.89 "HgN/A
8:58 PM78 °FWarm.N/A92%29.90 "HgN/A
7:58 PM78 °FWarm.N/A94%29.90 "HgN/A
6:58 PM77 °FMild.N/A93%29.87 "HgN/A
5:01 PM75 °FMild.N/A94%29.86 "HgN/A
3:58 PM76 °FMild.N/A94%29.89 "HgN/A
2:58 PM76 °FMild.N/A94%29.89 "HgN/A
2:00 PM77 °FWarm.N/A94%29.88 "HgN/A
1:58 PM77 °FWarm.N/A94%29.90 "HgN/A
1:03 PM79 °FWarm.N/A94%29.88 "HgN/A
12:58 PM79 °FWarm.N/A94%29.90 "HgN/A
11:58 AM80 °FWarm.N/A89%29.92 "HgN/A
10:58 AM81 °FWarm.N/A84%29.92 "HgN/A
10:03 AM79 °FWarm.N/A89%29.89 "HgN/A
9:58 AM78 °FWarm.N/A88%29.91 "HgN/A
9:03 AM79 °FWarm.N/A89%29.91 "HgN/A
7:58 AM79 °FWarm.N/A89%29.90 "HgN/A
6:58 AM79 °FWarm.N/A91%29.88 "HgN/A
5:59 AM77 °FWarm.N/A94%29.83 "HgN/A
5:58 AM77 °FWarm.N/A94%29.85 "HgN/A
4:58 AM74 °FMild.N/A95%29.85 "HgN/A
3:58 AM75 °FMild.N/A94%29.87 "HgN/A
3:03 AM79 °FWarm.N/A89%29.85 "HgN/A
2:58 AM79 °FWarm.N/A89%29.86 "HgN/A
1:58 AM80 °FWarm.N/A88%29.86 "HgN/A
12:58 AM80 °FWarm.N/A86%29.88 "HgN/A
Weather by CustomWeather, © 2016

See weather overviewHow to use our weather pages